Location: Bacea
(45.9500°N, 22.6667°E)
Time: 23:20:51
(UTC+00:00)

Cosmos 1953 - Pass Details

Date: 05 June 2022
Orbit: 533 x 555 km, 82.5° (Epoch: 01 July)

Event Time Altitude Azimuth Distance (km) Brightness Sun altitude
Rises 21:02:32 0° 360° (N) 2,712 7.2 -18.7°
Reaches altitude 10° 21:04:54 10° 11° (N) 1,811 5.8 -18.9°
Maximum altitude 21:08:27 31° 74° (ENE) 968 3.5 -19.1°
Enters shadow 21:09:17 28° 98° (E) 1,028 3.4 -19.1°
